Location: Unspecified
(35.6961°N, 0.0000°E)
Time: 04:23:20
(UTC+00:00)

Vanguard 2 - All Passes

Search period start: 25 May 2019 00:00
Search period end: 04 June 2019 00:00
Orbit: 552 x 2939 km, 32.9° (Epoch: 24 May)

Date Brightness Start Highest point End Pass type
(mag) Time Alt. Az. Time Alt. Az. Time Alt. Az.
25 May - 12:29:06 10° S 12:38:47 18° SE 12:48:57 10° E daylight
25 May - 14:33:27 10° SW 14:49:29 46° SSE 15:04:36 10° E daylight
25 May - 16:43:44 10° WSW 17:01:42 72° SSE 17:15:26 10° E daylight
25 May - 18:57:05 10° W 19:13:54 79° S 19:24:39 10° E daylight
25 May - 21:11:12 10° W 21:24:19 53° SSW 21:32:16 10° SE visible
25 May - 23:26:45 10° W 23:32:00 16° SW 23:36:09 10° SSW visible
26 May - 12:44:22 10° S 12:56:19 25° SE 13:09:07 10° E daylight
26 May - 14:50:43 10° SW 15:07:24 55° SSE 15:22:57 10° E daylight
26 May - 17:01:50 10° WSW 17:19:54 77° S 17:33:30 10° E daylight
26 May - 19:15:26 10° W 19:32:01 76° SSW 19:42:34 10° ESE visible
26 May - 21:29:39 10° W 21:41:59 43° SSW 21:49:41 10° SE visible
27 May - 13:00:31 10° SSW 13:13:54 33° SE 13:28:23 10° E daylight
27 May - 15:08:16 10° SW 15:25:23 62° SSE 15:41:11 10° E daylight
27 May - 17:20:02 10° W 17:38:08 80° S 17:51:33 10° E daylight
27 May - 19:33:48 10° W 19:50:05 70° SSW 20:00:25 10° ESE visible
27 May - 21:48:17 10° W 21:59:29 34° SW 22:06:50 10° SSE visible
28 May - 11:16:04 10° SSE 11:21:46 13° SE 11:27:55 10° ESE daylight
28 May - 13:17:12 10° SSW 13:31:32 41° SE 13:47:12 10° E daylight
28 May - 15:26:02 10° WSW 15:43:29 70° SSE 15:59:21 10° E daylight
28 May - 17:38:19 10° W 17:56:23 81° S 18:09:35 10° E daylight
28 May - 19:52:10 10° W 20:08:02 62° SSW 20:18:08 10° SE visible
28 May - 22:07:12 10° W 22:16:51 26° SW 22:23:37 10° S visible
29 May - 11:29:58 10° S 11:39:08 19° SE 11:49:39 10° E daylight
29 May - 13:34:17 10° SW 13:49:16 49° SSE 14:05:43 10° E daylight
29 May - 15:43:59 10° WSW 16:01:39 75° SSE 16:17:30 10° E daylight
29 May - 17:56:38 10° W 18:14:37 79° S 18:27:35 10° ESE daylight
29 May - 20:10:35 10° W 20:25:51 54° SSW 20:35:42 10° SE visible
29 May - 22:26:43 10° W 22:34:06 18° SW 22:39:46 10° S visible
30 May - 11:45:35 10° S 11:56:32 26° SE 12:09:35 10° E daylight
30 May - 13:51:39 10° SW 14:07:07 58° SSE 14:24:05 10° E daylight
30 May - 16:02:04 10° WSW 16:19:54 79° S 16:35:38 10° E daylight
30 May - 18:14:57 10° W 18:32:47 75° SSW 18:45:32 10° ESE daylight
30 May - 20:29:05 10° W 20:43:30 44° SW 20:53:03 10° SE visible
30 May - 22:47:50 10° WSW 22:51:17 12° SW 22:54:19 10° SW visible
31 May - 12:01:57 10° SSW 12:13:58 34° SE 12:28:45 10° E daylight
31 May - 14:09:15 10° SW 14:25:05 65° SSE 14:42:22 10° E daylight
31 May - 16:20:14 10° W 16:38:11 81° S 16:53:46 10° E daylight
31 May - 18:33:18 10° W 18:50:52 69° SSW 19:03:22 10° ESE daylight
31 May - 20:47:45 10° W 21:01:00 35° SW 21:10:08 10° SSE visible
01 Jun - 10:17:35 10° SSE 10:22:33 13° SE 10:28:08 10° ESE daylight
01 Jun - 12:18:48 10° SSW 12:31:31 43° SE 12:47:31 10° E daylight
01 Jun - 14:27:03 10° WSW 14:43:11 72° SSE 15:00:36 10° E daylight
01 Jun - 16:38:27 10° W 16:56:28 81° S 17:11:50 10° E daylight
01 Jun - 18:51:38 10° W 19:08:51 62° SSW 19:21:04 10° SE daylight
01 Jun - 21:06:44 10° W 21:18:22 27° SW 21:26:49 10° S visible
02 Jun - 10:31:50 10° S 10:39:48 19° SE 10:49:35 10° E daylight
02 Jun - 12:35:58 10° SW 12:49:12 51° SSE 13:06:03 10° E daylight
02 Jun - 14:45:00 10° WSW 15:01:23 77° SSE 15:18:49 10° E daylight
02 Jun - 16:56:43 10° W 17:14:45 79° S 17:29:53 10° ESE daylight
02 Jun - 19:10:02 10° W 19:26:40 53° SSW 19:38:35 10° SE visible
02 Jun - 21:26:18 10° W 21:35:38 20° SW 21:42:54 10° S visible
03 Jun - 10:47:40 10° S 10:57:05 27° SE 11:09:23 10° E daylight
03 Jun - 12:53:25 10° SW 13:07:00 60° SSE 13:24:26 10° E daylight
03 Jun - 15:03:03 10° WSW 15:19:38 80° S 15:37:01 10° E daylight
03 Jun - 17:14:58 10° W 17:32:57 74° SSW 17:47:51 10° ESE daylight
03 Jun - 19:28:32 10° W 19:44:20 45° SW 19:55:52 10° SSE visible
03 Jun - 21:47:15 10° WSW 21:52:50 13° SW 21:57:40 10° SSW visible
